[[{"header":{"parameterUnit":"m.s-1","parameterCategory":1,"la1":30.2991,"la2":30.254,"lo1":-89.0895,"lo2":-89.0444,"dy":0.0017,"dx":0.0017,"nx":28,"ny":28,"refTime":"2025-09-12T21:00:00:Z","depth":0,"parameterNumber":2,"parameterNumberName":"U-component_of_WINDS"},"data":[0,0,0,0,0,0,0,0,0,0,0,0,0,0,0,0,0,0,0,0,0,0,0,0,0,0,0,0,0,0,0,0,0,0,0,0,0,0,0,0,0,0,0,0,0,0,0,0,0,0,0,0,0,0,0,0,0,0,2.1567,2.1567,0,2.151,2.151,2.1509,2.1422,2.1421,2.1419,2.1418,2.1359,2.1359,2.1359,0,0,0,0,0,0,0,0,0,0,0,0,0,2.1599,2.1599,2.1567,2.1567,2.1566,2.151,2.1509,2.1509,2.1422,2.1421,2.1419,2.1417,2.1359,2.1359,2.1359,0,0,0,0,0,0,0,0,0,0,0,0,0,2.1568,2.1599,2.1567,2.1516,2.1511,2.151,2.1509,2.1508,2.1423,2.1421,2.1418,2.1416,2.1359,2.1359,2.1359,2.1404,0,0,2.1358,2.1358,0,0,0,0,0,0,0,0,2.157,2.1567,2.1524,2.152,2.1514,2.1471,2.1499,2.1473,2.1423,2.1456,2.1418,2.1415,2.1398,2.1394,2.1389,2.1401,2.1398,2.1358,2.1358,2.1358,2.1358,0,0,0,0,0,0,0,2.1572,2.1569,2.1545,2.1524,2.1517,2.1495,2.1488,2.1494,2.1441,2.1453,2.1447,2.1441,2.1395,2.1389,2.1387,2.1397,2.1358,2.1358,2.1358,2.1358,2.1438,2.1441,0,0,0,0,0,0,2.1582,2.1571,2.1546,2.1543,2.1537,2.1496,2.1489,2.1487,2.144,2.1431,2.1443,2.1437,2.1391,2.1387,2.1384,2.143,2.1358,2.1358,2.1357,2.1436,2.1439,2.1441,0,0,0,0,0,0,2.1583,2.1581,2.1549,2.1555,2.1549,2.1498,2.1497,2.1487,2.1481,2.1433,2.1423,2.1448,2.1389,2.1385,2.1398,2.1427,2.1357,2.1357,2.1434,2.1437,2.144,2.1526,0,0,0,0,0,0,2.1584,2.1582,2.1599,2.1556,2.1549,2.1565,2.1499,2.1488,2.1481,2.1473,2.1434,2.1426,2.1387,2.1399,2.1398,2.1426,2.1357,2.1431,2.1435,2.1439,2.152,2.1531,2.1541,0,0,0,0,0,2.1586,2.1626,2.16,2.1598,2.157,2.1567,2.1563,2.1517,2.1484,2.15,2.1468,2.1427,2.1425,2.1401,2.14,2.1428,2.1429,2.1434,2.1439,2.1515,2.1529,2.1541,0,0,0,0,0,0,2.1674,2.162,2.159,2.1619,2.1598,2.1552,2.1571,2.1534,2.1523,2.1515,2.1459,2.1451,2.1471,2.1451,2.1426,2.1466,2.142,2.1425,2.1479,2.1492,2.1502,2.1506,2.1357,0,0,0,0,0,2.1697,2.1699,2.1651,2.1681,2.1672,2.1624,2.1621,2.1587,2.1563,2.1554,2.1523,2.1502,2.1495,2.1493,2.1485,2.1517,2.1505,2.1535,2.1546,2.1555,2.1559,2.1571,2.1582,2.1458,2.1458,2.1458,0,0,2.1744,2.1715,2.172,2.1698,2.1678,2.168,2.1617,2.1623,2.1623,2.1555,2.1565,2.1542,2.1513,2.1535,2.1544,2.1519,2.1591,2.1561,2.1569,2.1568,2.1577,2.1589,2.1599,2.1462,2.1461,2.146,0,0,2.183,2.181,2.183,2.1811,2.1781,2.1748,2.1753,2.1712,2.1694,2.1703,2.165,2.165,2.1642,2.1622,2.1612,2.1687,2.1647,2.1686,2.1742,2.1754,2.1763,2.1772,2.1795,2.1805,2.1691,2.1692,2.1692,0,2.1892,2.1894,2.1845,2.1853,2.1843,2.1781,2.1799,2.1783,2.1753,2.1747,2.172,2.1705,2.1683,2.1697,2.1715,2.171,2.1711,2.169,2.1766,2.1774,2.1781,2.1803,2.1812,2.1696,2.1696,2.1695,2.1695,0,2.197,2.1972,2.1992,2.1962,2.1955,2.1969,2.192,2.1919,2.1885,2.1855,2.1863,2.1833,2.1816,2.1817,2.1786,2.1826,2.1811,2.1777,2.1728,2.1798,2.1818,2.1826,2.1703,2.1701,2.17,2.1699,0,0,2.2111,2.2053,2.2061,2.2045,2.2006,2.2006,2.2015,2.1998,2.1996,2.1977,2.1982,2.1975,2.194,2.1928,2.1893,2.1904,2.1961,2.1867,2.1865,2.1883,2.2,2.2025,2.2036,2.1935,2.1937,2.1938,2.2002,0,2.2188,2.2201,2.2155,2.218,2.2179,2.2118,2.2126,2.2102,2.2073,2.2067,2.2035,2.203,2.1987,2.1979,2.1987,2.1953,2.1984,2.1948,2.1936,2.1937,2.1943,2.2047,2.2074,2.2136,2.2009,2.2011,2.2012,0,2.2279,2.2262,2.2286,2.2243,2.2241,2.2249,2.2227,2.2223,2.2194,2.2172,2.2157,2.2116,2.212,2.2075,2.2078,2.2055,2.2047,2.2029,2.2031,2.2026,2.1977,2.2042,2.2155,2.2163,2.2024,2.2023,2.2022,0,2.2375,2.236,2.2371,2.236,2.231,2.2316,2.2296,2.2264,2.2256,2.2237,2.223,2.2213,2.2202,2.2189,2.2143,2.2115,2.215,2.2102,2.2129,2.2131,2.2138,2.2138,2.2249,2.2138,2.2138,2.2138,2.2138,0,2.2464,2.248,2.2413,2.242,2.2435,2.2382,2.2398,2.2371,2.2343,2.2342,2.2289,2.2289,2.223,2.2222,2.2187,2.2192,2.2189,2.217,2.2159,2.2173,2.2175,2.2166,2.2159,2.214,2.214,2.2139,2.2139,0,2.2574,2.253,2.2537,2.2489,2.2477,2.249,2.2448,2.2451,2.2419,2.2418,2.2414,2.2363,2.2351,2.2304,2.2282,2.2257,2.2274,2.2256,2.2283,2.2276,2.2305,2.2302,2.2411,2.2422,2.2308,2.2309,2.231,0,2.2632,2.2643,2.2595,2.2591,2.2572,2.2566,2.2556,2.2504,2.2496,2.2461,2.2468,2.2452,2.2436,2.2419,2.2379,2.236,2.234,2.2379,2.2336,2.2348,2.2336,2.2335,2.2334,2.2388,2.239,2.2391,2.2392,0,2.274,2.2716,2.2705,2.2685,2.2674,2.2656,2.2635,2.2634,2.2575,2.2568,2.2555,2.2542,2.2518,2.2501,2.2476,2.2453,2.2411,2.2406,2.241,2.2423,2.2437,2.2426,2.2306,2.2403,2.2402,2.2401,2.24,2.24,2.2823,2.2828,2.2795,2.2782,2.276,2.2741,2.274,2.2707,2.2695,2.2671,2.264,2.263,2.2597,2.2558,2.2538,2.2528,2.2505,2.2513,2.2514,2.2516,2.2522,2.2441,2.2523,2.2523,2.2522,2.2522,2.2522,0,2.2925,2.29,2.2889,2.286,2.2849,2.2812,2.2785,2.2778,2.277,2.2743,2.2728,2.2711,2.2694,2.2651,2.263,2.2629,2.261,2.2625,2.2623,2.2618,2.2545,2.2541,2.2641,2.2641,2.2641,2.2641,2.2641,2.2641,2.2976,2.2982,2.2955,2.2948,2.2922,2.2911,2.2899,2.2879,2.2857,2.284,2.2826,2.2798,2.2763,2.2738,2.272,2.2707,2.27,2.2722,2.2703,2.2635,2.2624,2.2613,2.2609,2.2721,2.2722,2.2776,2.2777,2.2777]},{"header":{"parameterUnit":"m.s-1","parameterCategory":1,"la1":30.2991,"la2":30.254,"lo1":-89.0895,"lo2":-89.0444,"dy":0.0017,"dx":0.0017,"nx":28,"ny":28,"refTime":"2025-09-12T21:00:00:Z","depth":0,"parameterNumber":3,"parameterNumberName":"V-component_of_WINDS"},"data":[0,0,0,0,0,0,0,0,0,0,0,0,0,0,0,0,0,0,0,0,0,0,0,0,0,0,0,0,0,0,0,0,0,0,0,0,0,0,0,0,0,0,0,0,0,0,0,0,0,0,0,0,0,0,0,0,0,0,-0.2733,-0.2734,0,-0.2857,-0.2859,-0.286,-0.2925,-0.2925,-0.2925,-0.2925,-0.3058,-0.3062,-0.3065,0,0,0,0,0,0,0,0,0,0,0,0,0,-0.2558,-0.2561,-0.2732,-0.2734,-0.2736,-0.2857,-0.2859,-0.286,-0.2925,-0.2925,-0.2925,-0.2925,-0.3057,-0.3061,-0.3065,0,0,0,0,0,0,0,0,0,0,0,0,0,-0.2654,-0.2562,-0.2732,-0.2782,-0.2788,-0.2857,-0.2859,-0.2861,-0.2925,-0.2925,-0.2925,-0.2925,-0.3056,-0.3061,-0.3066,-0.3096,0,0,-0.3082,-0.3084,0,0,0,0,0,0,0,0,-0.2648,-0.266,-0.2773,-0.2779,-0.2785,-0.2876,-0.2846,-0.294,-0.2925,-0.2873,-0.2925,-0.2925,-0.2998,-0.3008,-0.3031,-0.3102,-0.3108,-0.3082,-0.3086,-0.3088,-0.3089,0,0,0,0,0,0,0,-0.2641,-0.2655,-0.2782,-0.2775,-0.2782,-0.2801,-0.2815,-0.2864,-0.2934,-0.2878,-0.2883,-0.2896,-0.3001,-0.3026,-0.3035,-0.311,-0.3082,-0.3087,-0.309,-0.3092,-0.3217,-0.3217,0,0,0,0,0,0,-0.2626,-0.2649,-0.2778,-0.2786,-0.2715,-0.2804,-0.2819,-0.2847,-0.2933,-0.2946,-0.2896,-0.2899,-0.3017,-0.3029,-0.304,-0.3083,-0.3088,-0.3093,-0.3096,-0.3217,-0.3217,-0.3217,0,0,0,0,0,0,-0.2622,-0.2637,-0.2773,-0.2719,-0.2738,-0.2807,-0.2837,-0.2849,-0.2874,-0.2947,-0.296,-0.2908,-0.3017,-0.3032,-0.3082,-0.3089,-0.3095,-0.31,-0.3217,-0.3217,-0.3217,-0.3169,0,0,0,0,0,0,-0.2616,-0.2635,-0.2645,-0.2718,-0.274,-0.2811,-0.2837,-0.2851,-0.2882,-0.2887,-0.2962,-0.2974,-0.3019,-0.3074,-0.3087,-0.3096,-0.3104,-0.3216,-0.3217,-0.3217,-0.317,-0.3167,-0.3165,0,0,0,0,0,-0.261,-0.2626,-0.2645,-0.266,-0.2754,-0.2811,-0.2824,-0.2873,-0.2882,-0.2894,-0.2942,-0.2972,-0.3086,-0.3079,-0.3094,-0.3104,-0.3216,-0.3217,-0.3217,-0.3171,-0.3168,-0.3165,0,0,0,0,0,0,-0.2552,-0.2637,-0.2658,-0.2698,-0.2747,-0.2822,-0.2838,-0.2867,-0.2915,-0.2918,-0.2979,-0.2995,-0.304,-0.3078,-0.3068,-0.3141,-0.3154,-0.3158,-0.3114,-0.3112,-0.3109,-0.31,-0.3108,0,0,0,0,0,-0.2544,-0.2581,-0.2654,-0.2682,-0.2706,-0.2768,-0.2794,-0.2828,-0.2882,-0.2903,-0.2954,-0.3007,-0.3055,-0.3086,-0.3134,-0.3176,-0.3196,-0.3191,-0.3189,-0.3186,-0.3189,-0.3218,-0.3218,-0.3219,-0.3219,-0.3219,0,0,-0.2527,-0.2578,-0.2598,-0.2672,-0.2714,-0.2754,-0.2784,-0.2824,-0.2856,-0.291,-0.296,-0.3,-0.3063,-0.311,-0.3134,-0.3143,-0.3193,-0.3187,-0.3184,-0.3189,-0.3219,-0.3219,-0.3219,-0.3219,-0.3219,-0.3219,0,0,-0.2518,-0.2559,-0.2589,-0.263,-0.2693,-0.2735,-0.2742,-0.2813,-0.2842,-0.2893,-0.2935,-0.2975,-0.3055,-0.31,-0.3133,-0.3145,-0.3176,-0.3159,-0.3146,-0.3174,-0.3174,-0.3174,-0.3181,-0.3183,-0.3161,-0.3161,-0.3161,0,-0.249,-0.255,-0.2601,-0.264,-0.2673,-0.2723,-0.2756,-0.2794,-0.287,-0.2893,-0.2901,-0.3006,-0.3052,-0.3112,-0.3115,-0.314,-0.3153,-0.3151,-0.3169,-0.317,-0.3171,-0.3179,-0.3181,-0.3159,-0.3159,-0.316,-0.316,0,-0.2514,-0.2555,-0.2572,-0.2643,-0.2679,-0.2714,-0.2773,-0.2803,-0.2836,-0.2877,-0.2932,-0.2989,-0.3051,-0.3068,-0.3099,-0.3134,-0.3138,-0.3157,-0.3173,-0.3168,-0.3177,-0.318,-0.3156,-0.3157,-0.3157,-0.3158,0,0,-0.2469,-0.2571,-0.2576,-0.2611,-0.2685,-0.272,-0.276,-0.2819,-0.2845,-0.2897,-0.2934,-0.3003,-0.3022,-0.306,-0.3098,-0.3122,-0.3132,-0.3139,-0.3142,-0.3138,-0.3178,-0.3164,-0.3166,-0.3153,-0.3153,-0.3154,-0.3173,0,-0.2472,-0.2543,-0.2592,-0.2646,-0.2687,-0.2737,-0.2773,-0.2824,-0.2865,-0.2908,-0.2955,-0.3004,-0.3024,-0.3048,-0.3074,-0.3125,-0.3141,-0.3124,-0.3191,-0.3193,-0.3174,-0.317,-0.3154,-0.3169,-0.3176,-0.3177,-0.3177,0,-0.2484,-0.2534,-0.2591,-0.2664,-0.2684,-0.2714,-0.2775,-0.2814,-0.2876,-0.2904,-0.2948,-0.2987,-0.3035,-0.3046,-0.3115,-0.3103,-0.3134,-0.3164,-0.3165,-0.3174,-0.3185,-0.318,-0.3175,-0.3178,-0.3183,-0.3182,-0.3182,0,-0.2449,-0.253,-0.2576,-0.2604,-0.269,-0.2711,-0.2748,-0.2809,-0.2844,-0.2898,-0.2922,-0.2981,-0.3014,-0.3061,-0.3117,-0.3119,-0.3182,-0.3196,-0.321,-0.3208,-0.3221,-0.3219,-0.3222,-0.3238,-0.3238,-0.3238,-0.3238,0,-0.2447,-0.248,-0.2561,-0.2589,-0.263,-0.2688,-0.2728,-0.277,-0.2825,-0.2865,-0.2912,-0.2949,-0.302,-0.3067,-0.3111,-0.3164,-0.3178,-0.3205,-0.3216,-0.3201,-0.3198,-0.3223,-0.3224,-0.3238,-0.3238,-0.3238,-0.3238,0,-0.2414,-0.2469,-0.2523,-0.2601,-0.2621,-0.2648,-0.2717,-0.2748,-0.2793,-0.2843,-0.2858,-0.293,-0.2988,-0.3048,-0.3126,-0.3156,-0.3208,-0.3223,-0.3187,-0.3194,-0.3204,-0.3203,-0.3224,-0.3231,-0.324,-0.324,-0.324,0,-0.2409,-0.2436,-0.2518,-0.2547,-0.2583,-0.263,-0.2666,-0.2725,-0.2761,-0.2835,-0.2858,-0.292,-0.2972,-0.3063,-0.3124,-0.3185,-0.3203,-0.3207,-0.3213,-0.3198,-0.3207,-0.3205,-0.3209,-0.3204,-0.3204,-0.3203,-0.3203,0,-0.2397,-0.2424,-0.2471,-0.253,-0.2571,-0.2621,-0.2672,-0.2695,-0.2765,-0.2804,-0.2863,-0.2903,-0.2985,-0.3046,-0.3116,-0.3158,-0.3194,-0.3201,-0.3208,-0.3193,-0.3172,-0.3186,-0.3182,-0.32,-0.32,-0.3201,-0.3201,-0.3201,-0.2379,-0.2407,-0.247,-0.2523,-0.2568,-0.2616,-0.265,-0.27,-0.275,-0.282,-0.2853,-0.2913,-0.2979,-0.3076,-0.3118,-0.3168,-0.3178,-0.3187,-0.319,-0.3192,-0.3189,-0.3162,-0.3181,-0.3181,-0.3181,-0.3181,-0.3182,0,-0.2371,-0.2414,-0.2463,-0.2534,-0.2577,-0.2605,-0.2665,-0.27,-0.2752,-0.2809,-0.286,-0.2931,-0.2992,-0.3058,-0.3124,-0.3152,-0.3171,-0.3168,-0.3167,-0.3177,-0.3175,-0.3164,-0.3152,-0.3152,-0.3152,-0.3152,-0.3152,-0.3152,-0.2372,-0.2421,-0.2456,-0.2531,-0.2575,-0.2633,-0.2665,-0.2712,-0.2758,-0.2834,-0.2884,-0.2927,-0.299,-0.3061,-0.312,-0.3139,-0.3162,-0.3155,-0.3178,-0.3175,-0.3177,-0.3179,-0.3169,-0.3159,-0.3159,-0.3177,-0.3177,-0.3177]}]]